(175037) = 2001 UY195 = 2004 FO58

Discovered at Kitt Peak on 2004-03-17 by Spacewatch.

Orbit

Orbit type: Main Belt

Note: WebGL enabled browser required.

epoch2023-09-13.0
epoch JD2460200.5
perihelion date2021-07-04.39721
perihelion JD2459399.89721
argument of perihelion (°)123.58335
ascending node (°)134.17348
inclination (°)1.98976
eccentricity0.0632476
perihelion distance (AU)2.8952850
Tisserand w.r.t. Jupiter3.2
ΔV w.r.t. Earth (km/sec)10.6
semimajor axis (AU)3.0907688
mean anomaly (°)145.21824
mean daily motion (°/day)0.18138610
aphelion distance (AU)3.286
period (years)5.43
P-vector [x]-0.21170091
P-vector [y]-0.90779993
P-vector [z]-0.36205251
Q-vector [x]0.97701718
Q-vector [y]-0.18713590
Q-vector [z]-0.10206658
absolute magnitude15.7
phase slope0.15
uncertainty0
referenceMPEC 2024-A65
observations used597
oppositions20
arc length (days)9031
first opposition used1999
last opposition used2024
residual rms (arc-secs)0.67
perturbers coarse indicatorM-v
perturbers precise indicator003Ek
first observation date used1999-04-14.0
last observation date used2024-01-04.0
computer nameMPCLINUX
JD of orbit computation2456731.519823
perihelion JD uncertainty (days)3.3834E-04
argument of perihelion uncertainty (°)1.6183E-04
ascending node uncertainty (°)1.5160E-04
inclination uncertainty (°)4.8172E-06
eccentricity uncertainty 4.2986E-08
perihelion distance uncertainty (AU)1.3257E-07
Minimum Orbit Intersection Distances (in AU)
for orbit epoch: 2460200.5, reference: E2024-A65
Mercury2.43074
Venus2.16951
Earth1.88001
Mars1.35291
Jupiter1.73294
Saturn5.76903
Uranus15.33
Neptune26.6017

Observations

609 total observations over interval: 1999 04 14.43728 – 2024 01 04.404007
These data are available for download (format description).

Date (UT) J2000 RA J2000 Dec Magn Location Ref
1999 04 14.43728 14 50 05.71 -13 15 20.9 19.9 V 691 – Steward Observatory, Kitt Peak-Spacewatch MPS 108526
1999 04 14.46053 14 50 04.78 -13 15 15.6 19.8 V 691 – Steward Observatory, Kitt Peak-Spacewatch MPS 108526
1999 04 14.48377 14 50 03.85 -13 15 10.7 20.0 V 691 – Steward Observatory, Kitt Peak-Spacewatch MPS 108526
2000 07 24.38624 21 24 48.69 -15 07 05.6 20.3 V 691 – Steward Observatory, Kitt Peak-Spacewatch MPS 108526
2000 07 24.41042 21 24 47.65 -15 07 11.1 20.1 V 691 – Steward Observatory, Kitt Peak-Spacewatch MPS 108526
2000 07 24.45418 21 24 45.76 -15 07 21.2 20.8 V 691 – Steward Observatory, Kitt Peak-Spacewatch MPS 108526
2001 10 18.36115 02 19 31.94 +10 59 02.3 20.5   644 – Palomar Mountain/NEAT MPS 57222
2001 10 18.38442 02 19 30.87 +10 58 57.4 20.6   644 – Palomar Mountain/NEAT MPS 57222
2001 10 18.40559 02 19 29.91 +10 58 52.4 20.5   644 – Palomar Mountain/NEAT MPS 57222
2001 10 20.34369 02 18 02.02 +10 50 52.4 18.8   704 – Lincoln Laboratory ETS, New Mexico MPS 57222
2001 10 20.37638 02 18 00.47 +10 50 44.2 19.2   704 – Lincoln Laboratory ETS, New Mexico MPS 57222
2001 10 20.40928 02 17 58.98 +10 50 36.3 19.4   704 – Lincoln Laboratory ETS, New Mexico MPS 57222
2003 01 09.12866 06 58 16.92 +21 21 21.0 19.7 R 735 – George Observatory, Needville MPS 108526
2003 01 09.14087 06 58 16.17 +21 21 21.8 19.2 R 735 – George Observatory, Needville MPS 108526
2004 02 26.33478 12 32 35.46 -01 23 39.9 19.8   704 – Lincoln Laboratory ETS, New Mexico MPS 103982
2004 02 26.35691 12 32 34.86 -01 23 34.7 20.6   704 – Lincoln Laboratory ETS, New Mexico MPS 103982
2004 02 26.36803 12 32 34.52 -01 23 32.6 20.4   704 – Lincoln Laboratory ETS, New Mexico MPS 103982
2004 02 26.37920 12 32 34.26 -01 23 29.4 20.2   704 – Lincoln Laboratory ETS, New Mexico MPS 103982
2004 03 17.40356 12 20 22.37 +00 10 45.1 20.1 V 691 – Steward Observatory, Kitt Peak-Spacewatch MPS 103982
2004 03 17.43394 12 20 21.01 +00 10 54.7 20.2 V 691 – Steward Observatory, Kitt Peak-Spacewatch MPS 103982
2004 03 17.46498 12 20 19.63 +00 11 04.5 20.3 V 691 – Steward Observatory, Kitt Peak-Spacewatch MPS 103982
2004 03 22.34349 12 16 44.59 +00 37 01.6 20.2   704 – Lincoln Laboratory ETS, New Mexico MPS 103982
2004 03 22.35429 12 16 44.16 +00 37 04.6 20.0   704 – Lincoln Laboratory ETS, New Mexico MPS 103982
2004 03 22.36508 12 16 43.64 +00 37 07.9 19.8   704 – Lincoln Laboratory ETS, New Mexico MPS 103982
2004 03 22.37603 12 16 43.10 +00 37 12.0 20.1   704 – Lincoln Laboratory ETS, New Mexico MPS 103982
2004 03 24.27399 12 15 18.44 +00 47 16.8 19.6 R 699 – Lowell Observatory-LONEOS MPS 103982
2004 03 24.29425 12 15 17.52 +00 47 23.1   699 – Lowell Observatory-LONEOS MPS 103982
2004 03 24.31451 12 15 16.49 +00 47 29.4   699 – Lowell Observatory-LONEOS MPS 103982
2004 03 24.33481 12 15 15.61 +00 47 36.9   699 – Lowell Observatory-LONEOS MPS 103982
2004 03 26.29533 12 13 47.83 +00 57 57.7 19.6 V 691 – Steward Observatory, Kitt Peak-Spacewatch MPS 103982
2004 03 26.32555 12 13 46.43 +00 58 07.0 19.7 V 691 – Steward Observatory, Kitt Peak-Spacewatch MPS 103982
2004 03 26.35689 12 13 44.96 +00 58 17.0 20.0 V 691 – Steward Observatory, Kitt Peak-Spacewatch MPS 103982
2004 04 12.22226 12 01 59.09 +02 18 22.0 20.5 V 691 – Steward Observatory, Kitt Peak-Spacewatch MPS 104394
2004 04 12.24993 12 01 58.03 +02 18 28.7 20.3 V 691 – Steward Observatory, Kitt Peak-Spacewatch MPS 104394
2004 04 12.27841 12 01 56.94 +02 18 35.5 20.2 V 691 – Steward Observatory, Kitt Peak-Spacewatch MPS 104394
2004 04 15.14420 12 00 15.03 +02 29 37.8 21.2 V 691 – Steward Observatory, Kitt Peak-Spacewatch MPS 104394
2004 04 15.17478 12 00 13.94 +02 29 44.7 20.6 V 691 – Steward Observatory, Kitt Peak-Spacewatch MPS 104394
2004 04 15.20522 12 00 12.85 +02 29 51.6 20.4 V 691 – Steward Observatory, Kitt Peak-Spacewatch MPS 104394
2004 07 15.99540 12 26 59.01 -00 57 30.9 20.0 R 807 – Cerro Tololo Observatory, La Serena MPS 110712
2004 07 16.04023 12 27 01.65 -00 57 49.1   807 – Cerro Tololo Observatory, La Serena MPS 110712
2006 09 11.32395 00 26 57.04 +00 39 25.4 20.7   705 – Apache Point MPS 198695
2006 09 11.32478 00 26 57.01 +00 39 25.2 20.3 V 705 – Apache Point MPS 198695
2006 09 12.32634 00 26 17.80 +00 34 34.3 20.5   705 – Apache Point MPS 198695
2006 09 12.32718 00 26 17.77 +00 34 34.1 20.1 V 705 – Apache Point MPS 198695
2006 09 18.31742 00 22 11.50 +00 04 37.4 20.7   705 – Apache Point MPS 198695
2006 09 18.31825 00 22 11.47 +00 04 37.3 20.2 V 705 – Apache Point MPS 198695
2006 09 19.41575 00 21 24.46 -00 00 59.5 20.3   705 – Apache Point MPS 198695
2006 09 19.41659 00 21 24.43 -00 00 59.7 20.0 V 705 – Apache Point MPS 198695
2006 09 26.29991 00 16 23.88 -00 36 24.8 19.8 V G96 – Mt. Lemmon Survey MPS 181041
2006 09 26.30733 00 16 23.55 -00 36 27.3 19.9 V G96 – Mt. Lemmon Survey MPS 181041
2006 09 26.31470 00 16 23.23 -00 36 29.5 19.9 V G96 – Mt. Lemmon Survey MPS 181041
2006 09 26.32222 00 16 22.87 -00 36 32.0 19.9 V G96 – Mt. Lemmon Survey MPS 181041
2006 09 27.31177 00 15 39.25 -00 41 35.4 20.2   705 – Apache Point MPS 198695
2006 09 27.31259 00 15 39.21 -00 41 35.7 19.9 V 705 – Apache Point MPS 198695
2006 09 29.34066 00 14 09.91 -00 51 53.1 20.5   705 – Apache Point MPS 198695
2006 09 29.34149 00 14 09.87 -00 51 53.3 19.9 V 705 – Apache Point MPS 198695
2006 10 01.26347 00 12 45.89 -01 01 30.6 20.1   705 – Apache Point MPS 198695
2006 10 01.26429 00 12 45.85 -01 01 30.8 19.8 V 705 – Apache Point MPS 198695
2006 10 02.26450 00 12 02.40 -01 06 27.3 20.9   705 – Apache Point MPS 198695
2006 10 02.26534 00 12 02.36 -01 06 27.6 20.2 V 705 – Apache Point MPS 198695
2006 10 21.19567 23 59 54.96 -02 26 00.7 20.2 V G96 – Mt. Lemmon Survey MPS 184064
2006 10 21.20072 23 59 54.78 -02 26 01.7 19.8 V G96 – Mt. Lemmon Survey MPS 184064
2006 10 21.20579 23 59 54.60 -02 26 03.0 19.8 V G96 – Mt. Lemmon Survey MPS 184064
2006 10 21.21085 23 59 54.45 -02 26 03.7 20.5 V G96 – Mt. Lemmon Survey MPS 184064
2007 12 05.27088 04 59 28.12 +20 15 02.4 20.4   704 – Lincoln Laboratory ETS, New Mexico MPS 229803
2007 12 05.28362 04 59 27.47 +20 15 01.2 20.6   704 – Lincoln Laboratory ETS, New Mexico MPS 229803
2007 12 05.29636 04 59 26.76 +20 15 00.4 20.3   704 – Lincoln Laboratory ETS, New Mexico MPS 229803
2007 12 05.30909 04 59 26.06 +20 15 00.0 20.2   704 – Lincoln Laboratory ETS, New Mexico MPS 229803
2008 01 11.21667 04 32 36.31 +19 46 24.9 20.4 V G96 – Mt. Lemmon Survey MPS 233387
2008 01 11.22653 04 32 36.06 +19 46 24.8 20.0 V G96 – Mt. Lemmon Survey MPS 233387
2008 01 11.23642 04 32 35.80 +19 46 24.2 20.4 V G96 – Mt. Lemmon Survey MPS 233387
2008 01 11.24627 04 32 35.55 +19 46 24.3 20.5 V G96 – Mt. Lemmon Survey MPS 233387
2008 02 08.17514 04 29 43.33 +20 02 28.8 21.2 V G96 – Mt. Lemmon Survey MPS 237324
2008 02 08.18169 04 29 43.40 +20 02 28.9 21.4 V G96 – Mt. Lemmon Survey MPS 237324
2008 02 08.18833 04 29 43.51 +20 02 30.0 21.6 V G96 – Mt. Lemmon Survey MPS 237324
2008 02 08.19483 04 29 43.58 +20 02 30.0 21.4 V G96 – Mt. Lemmon Survey MPS 237324
2008 11 23.48843 10 15 10.87 +10 48 00.3 21.6 V G96 – Mt. Lemmon Survey MPS 267289
2008 11 23.49340 10 15 11.08 +10 47 59.4 21.4 V G96 – Mt. Lemmon Survey MPS 267289
2008 11 23.49843 10 15 11.30 +10 47 58.2 21.6 V G96 – Mt. Lemmon Survey MPS 267289
2008 11 23.50343 10 15 11.48 +10 47 57.1 21.4 V G96 – Mt. Lemmon Survey MPS 267289
2009 01 17.45624 10 24 26.37 +10 23 56.9   691 – Steward Observatory, Kitt Peak-Spacewatch MPS 276119
2009 01 17.47437 10 24 25.92 +10 24 00.4   691 – Steward Observatory, Kitt Peak-Spacewatch MPS 276119
2009 01 17.49252 10 24 25.48 +10 24 03.0   691 – Steward Observatory, Kitt Peak-Spacewatch MPS 276119
2009 02 02.34563 10 15 42.74 +11 23 56.0 20.1 V 691 – Steward Observatory, Kitt Peak-Spacewatch MPS 276119
2009 02 02.36400 10 15 41.97 +11 24 00.7 20.2 V 691 – Steward Observatory, Kitt Peak-Spacewatch MPS 276119
2009 02 02.38212 10 15 41.21 +11 24 05.6 20.1 V 691 – Steward Observatory, Kitt Peak-Spacewatch MPS 276119
2009 02 14.96760 10 06 22.82 +12 23 32.1 20.1 V J75 – OAM Observatory, La Sagra MPS 279968
2009 02 14.98066 10 06 22.19 +12 23 35.8 19.1 V J75 – OAM Observatory, La Sagra MPS 279968
